Weather History for Appleton, MN

Change the Weather History Date:

Friday, September 20, 2013

  Actual Average Record
Temperature  
Mean Temperature 53 °F -  
Max Temperature 62 °F 68 °F 84 °F (2005)
Min Temperature 42 °F 43 °F 30 °F (2006)
Degree Days  
Heating Degree Days 12    
Growing Degree Days 3 (Base 50)    
Moisture  
Dew Point 48 °F    
Average Humidity 78    
Maximum Humidity 94    
Minimum Humidity 48    
Precipitation  
Precipitation 0.00 in - - ()
Sea Level Pressure  
Sea Level Pressure 29.93 in    
Wind  
Wind Speed 11 mph (NW)    
Max Wind Speed 18 mph    
Max Gust Speed 25 mph    
Visibility 9 miles    
Events Rain    
Averages and records for this station are not official NWS values.
T = Trace of Precipitation, MM = Missing Value Source: NWS Daily Summary

Daily Weather History Graph

Daily Weather History Graph

Search for Another Location

Airport:

Trip Planner

Search our weather history database for the weather conditions in past years. The results will help you decide how hot, cold, wet, or windy it might be!

Date:

Astronomy

Sep. 20, 2013 Rise Set
Actual Time 7:08 AM CDT 7:24 PM CDT
Civil Twilight 6:39 AM CDT 7:54 PM CDT
Nautical Twilight 6:04 AM CDT 8:28 PM CDT
Astronomical Twilight 5:29 AM CDT 9:04 PM CDT
Moon 7:52 PM CDT (9/20) 8:30 AM CDT (9/20)
Length of Visible Light 13h 14m
Length of Day
12h 15m
Full, 98% of the Moon is Illuminated
Sep 20
Full
Sep 26
Last Quarter
Oct 4
New
Oct 11
First Quarter
Oct 18
Full

Hourly Weather History & Observations

Time (CDT) Temp. Windchill Dew Point Humidity Pressure Visibility Wind Dir Wind Speed Gust Speed Precip Events Conditions
12:13 AM 57.2 °F - 50.0 °F 77% 29.89 in 10.0 mi West 8.1 mph - N/A   Scattered Clouds
12:33 AM 55.4 °F - 50.0 °F 82% 29.89 in 10.0 mi West 9.2 mph - N/A   Scattered Clouds
12:53 AM 57.2 °F - 51.8 °F 82% 29.89 in 10.0 mi WNW 11.5 mph 19.6 mph N/A   Mostly Cloudy
1:13 AM 57.2 °F - 51.8 °F 82% 29.89 in 10.0 mi WNW 10.4 mph 16.1 mph N/A   Overcast
1:33 AM 57.2 °F - 51.8 °F 82% 29.88 in 10.0 mi West 9.2 mph - N/A   Overcast
1:53 AM 57.2 °F - 51.8 °F 82% 29.89 in 10.0 mi West 10.4 mph 16.1 mph N/A   Overcast
2:13 AM 57.2 °F - 51.8 °F 82% 29.88 in 10.0 mi WNW 12.7 mph 17.3 mph N/A   Overcast
2:33 AM 57.2 °F - 51.8 °F 82% 29.88 in 10.0 mi WNW 16.1 mph - N/A   Overcast
2:53 AM 57.2 °F - 51.8 °F 82% 29.88 in 10.0 mi WNW 18.4 mph - N/A   Overcast
3:13 AM 55.4 °F - 53.6 °F 94% 29.88 in 7.0 mi WNW 13.8 mph 18.4 mph N/A Rain Rain
3:33 AM 55.4 °F - 53.6 °F 94% 29.87 in 7.0 mi WNW 12.7 mph 19.6 mph N/A   Overcast
3:53 AM 55.4 °F - 53.6 °F 94% 29.87 in 4.0 mi WNW 13.8 mph - N/A   Overcast
4:13 AM 55.4 °F - 53.6 °F 94% 29.87 in 3.0 mi NW 10.4 mph - N/A Rain Light Rain
4:33 AM 55.4 °F - 53.6 °F 94% 29.87 in 10.0 mi WNW 10.4 mph 19.6 mph N/A   Overcast
4:53 AM 55.4 °F - 53.6 °F 94% 29.88 in 10.0 mi NW 9.2 mph 17.3 mph N/A   Light Drizzle
5:13 AM 55.4 °F - 51.8 °F 88% 29.88 in 7.0 mi NNW 13.8 mph 25.3 mph N/A Rain Light Rain
5:33 AM 55.4 °F - 51.8 °F 88% 29.89 in 10.0 mi NW 13.8 mph 21.9 mph N/A   Overcast
5:53 AM 55.4 °F - 51.8 °F 88% 29.89 in 10.0 mi NW 12.7 mph - N/A   Overcast
6:13 AM 55.4 °F - 51.8 °F 88% 29.90 in 10.0 mi NW 11.5 mph 19.6 mph N/A   Overcast
6:33 AM 55.4 °F - 51.8 °F 88% 29.90 in 10.0 mi WNW 13.8 mph 17.3 mph N/A   Overcast
6:53 AM 55.4 °F - 51.8 °F 88% 29.91 in 10.0 mi WNW 11.5 mph - N/A   Mostly Cloudy
7:13 AM 53.6 °F - 51.8 °F 94% 29.92 in 10.0 mi WNW 11.5 mph 17.3 mph N/A   Mostly Cloudy
7:33 AM 53.6 °F - 50.0 °F 88% 29.93 in 10.0 mi WNW 11.5 mph 18.4 mph N/A   Overcast
7:54 AM 53.6 °F - 51.8 °F 94% 29.94 in 10.0 mi WNW 15.0 mph 19.6 mph N/A   Overcast
8:13 AM 53.6 °F - 50.0 °F 88% 29.94 in 10.0 mi NW 16.1 mph 23.0 mph N/A   Overcast
8:34 AM 53.6 °F - 50.0 °F 88% 29.94 in 7.0 mi WNW 15.0 mph - N/A   Mostly Cloudy
8:53 AM 55.4 °F - 50.0 °F 82% 29.94 in 10.0 mi WNW 15.0 mph 21.9 mph N/A   Mostly Cloudy
9:13 AM 53.6 °F - 50.0 °F 88% 29.95 in 10.0 mi NW 15.0 mph 21.9 mph N/A   Overcast
9:33 AM 55.4 °F - 50.0 °F 82% 29.95 in 10.0 mi NW 13.8 mph 19.6 mph N/A   Mostly Cloudy
9:54 AM 55.4 °F - 48.2 °F 77% 29.95 in 10.0 mi NW 16.1 mph 21.9 mph N/A   Mostly Cloudy
10:13 AM 55.4 °F - 48.2 °F 77% 29.96 in 10.0 mi NW 16.1 mph - N/A   Overcast
10:33 AM 57.2 °F - 48.2 °F 72% 29.96 in 10.0 mi NW 17.3 mph 21.9 mph N/A   Overcast
10:53 AM 57.2 °F - 48.2 °F 72% 29.97 in 10.0 mi WNW 15.0 mph 20.7 mph N/A   Overcast
11:13 AM 57.2 °F - 48.2 °F 72% 29.97 in 10.0 mi WNW 12.7 mph - N/A   Overcast
11:33 AM 57.2 °F - 48.2 °F 72% 29.97 in 10.0 mi WNW 15.0 mph 18.4 mph N/A   Overcast
11:54 AM 55.4 °F - 48.2 °F 77% 29.97 in 10.0 mi WNW 13.8 mph - N/A   Overcast
12:13 PM 55.4 °F - 48.2 °F 77% 29.98 in 10.0 mi NW 16.1 mph 20.7 mph N/A   Overcast
12:33 PM 53.6 °F - 48.2 °F 82% 29.97 in 5.0 mi WNW 13.8 mph - N/A   Haze
12:54 PM 55.4 °F - 48.2 °F 77% 29.97 in 5.0 mi WNW 16.1 mph 21.9 mph N/A   Haze
1:13 PM 55.4 °F - 51.8 °F 88% 29.97 in 5.0 mi WNW 15.0 mph 19.6 mph N/A   Overcast
1:34 PM 55.4 °F - 48.2 °F 77% 29.96 in 10.0 mi NW 15.0 mph 21.9 mph N/A   Overcast
1:53 PM 55.4 °F - 48.2 °F 77% 29.96 in 10.0 mi NW 11.5 mph - N/A   Overcast
2:13 PM 57.2 °F - 46.4 °F 67% 29.95 in 10.0 mi NW 16.1 mph - N/A   Overcast
2:33 PM 57.2 °F - 44.6 °F 63% 29.95 in 10.0 mi NW 13.8 mph - N/A   Overcast
2:53 PM 57.2 °F - 46.4 °F 67% 29.95 in 10.0 mi NW 11.5 mph 17.3 mph N/A   Overcast
3:13 PM 60.8 °F - 44.6 °F 55% 29.95 in 10.0 mi WNW 11.5 mph 20.7 mph N/A   Overcast
3:33 PM 60.8 °F - 42.8 °F 52% 29.95 in 10.0 mi NW 12.7 mph - N/A   Overcast
3:54 PM 60.8 °F - 42.8 °F 52% 29.94 in 10.0 mi NW 11.5 mph - N/A   Mostly Cloudy
4:14 PM 60.8 °F - 42.8 °F 52% 29.94 in 10.0 mi NW 15.0 mph 20.7 mph N/A   Overcast
5:26 PM 62.6 °F - 42.8 °F 48% 29.93 in 10.0 mi North 12.7 mph - N/A   Mostly Cloudy
5:33 PM 62.6 °F - 42.8 °F 48% 29.93 in 10.0 mi North 13.8 mph - N/A   Scattered Clouds
5:53 PM 60.8 °F - 42.8 °F 52% 29.94 in 10.0 mi NNW 8.1 mph - N/A   Clear
6:13 PM 60.8 °F - 42.8 °F 52% 29.94 in 10.0 mi NW 9.2 mph - N/A   Clear
6:33 PM 60.8 °F - 42.8 °F 52% 29.94 in 10.0 mi NNW 6.9 mph - N/A   Clear
6:53 PM 60.8 °F - 42.8 °F 52% 29.94 in 10.0 mi NNW 6.9 mph - N/A   Clear
7:13 PM 57.2 °F - 42.8 °F 59% 29.94 in 10.0 mi NW 8.1 mph - N/A   Clear
7:33 PM 55.4 °F - 42.8 °F 63% 29.95 in 10.0 mi NW 5.8 mph - N/A   Clear
7:53 PM 53.6 °F - 42.8 °F 67% 29.95 in 10.0 mi NNW 4.6 mph - N/A   Clear
8:13 PM 51.8 °F - 42.8 °F 71% 29.95 in 10.0 mi NNW 4.6 mph - N/A   Clear
8:33 PM 51.8 °F - 42.8 °F 71% 29.96 in 10.0 mi NNW 3.5 mph - N/A   Clear
8:53 PM 50.0 °F - 42.8 °F 76% 29.96 in 10.0 mi Calm Calm - N/A   Clear
9:13 PM 48.2 °F - 42.8 °F 82% 29.96 in 10.0 mi Calm Calm - N/A   Clear
9:33 PM 48.2 °F - 42.8 °F 82% 29.96 in 10.0 mi Calm Calm - N/A   Clear
9:53 PM 46.4 °F - 42.8 °F 87% 29.97 in 10.0 mi Calm Calm - N/A   Clear
10:13 PM 46.4 °F - 42.8 °F 87% 29.97 in 10.0 mi Calm Calm - N/A   Clear
10:33 PM 46.4 °F - 42.8 °F 87% 29.97 in 10.0 mi Calm Calm - N/A   Clear
10:53 PM 44.6 °F - 42.8 °F 93% 29.97 in 10.0 mi Calm Calm - N/A   Clear
11:13 PM 44.6 °F - 41.0 °F 87% 29.97 in 10.0 mi Calm Calm - N/A   Clear
11:33 PM 44.6 °F - 42.8 °F 93% 29.97 in 10.0 mi Calm Calm - N/A   Clear
11:53 PM 42.8 °F 40.1 °F 39.2 °F 87% 29.97 in 10.0 mi WSW 4.6 mph - N/A   Clear